Regional Weather Roundup
Issued by NWS Albany, NY

Home | Current Version | Previous Version | Graphics & Text | Print | Product List | Glossary Off
Versions: 1 2 3 4 5 6 7 8 9 10 11 12 13 14 15 16 17 18 19 20 21 22 23 24 25 26

000
ASUS41 KALY 271410
RWRALY

NEW YORK STATE HOURLY WEATHER ROUNDUP
NATIONAL WEATHER SERVICE ALBANY NY
1000 AM EDT THU JUL 27 2017

NOTE: "FAIR" INDICATES FEW OR NO CLOUDS BELOW 12,000 FEET WITH NO
SIGNIFICANT WEATHER AND/OR NO OBSTRUCTIONS TO VISIBILITY.

NYZ032-033-038>043-046>054-057>066-NYZ062>081-082-084-271500-
EAST


CITY           SKY/WX    TMP DP  RH WIND       PRES   REMARKS
ALBANY         LGT RAIN  66  61  84 S9        29.99R
GLENS FALLS    CLOUDY    64  60  87 S3        29.96F
POUGHKEEPSIE   CLOUDY    69  62  78 SW7       30.01F
NEWBURGH       CLOUDY    68  64  88 SW6       30.04F
MONTGOMERY     CLOUDY    70  64  81 SW12      30.01F
WHITE PLAINS   PTSUNNY   71  61  70 VRB5      30.03F
ISLIP          PTSUNNY   74  58  57 SW9       30.04F
NEW YORK CITY  CLOUDY    75  62  64 W13       30.02F
CENTRAL PARK   PTSUNNY   73  63  70 VRB5      30.05F
$$

NYZ005>009-017-018-044>046-055-056-271500-
CENTRAL


CITY           SKY/WX    TMP DP  RH WIND       PRES   REMARKS
FULTON         LGT RAIN  67  65  93 SW8       29.95F FOG
SYRACUSE       LGT RAIN  66  65  96 SW8       29.96S
ROME           RAIN      65  65 100 CALM      29.97F FOG
ELMIRA         LGT RAIN  68  63  84 CALM      29.99S
BINGHAMTON     LGT RAIN  64  63  96 SW6       30.01F FOG
$$

NYZ026>034-041>043-087-271500-
NORTH


CITY           SKY/WX    TMP DP  RH WIND       PRES   REMARKS
WATERTOWN      CLOUDY    68  68 100 W8        29.91F
FORT DRUM      NOT AVBL
OGDENSBURG     CLOUDY    69  67  94 SW5       29.89F
MASSENA        CLOUDY    69  67  93 SW8       29.88F
SARANAC LAKE   CLOUDY    65  63  93 SW9       29.92F
PLATTSBURGH    CLOUDY    68  64  87 S8        29.88F
$$

NYZ001>004-010>016-019>021-085-271500-
WEST


CITY           SKY/WX    TMP DP  RH WIND       PRES   REMARKS
NIAGARA FALLS  CLOUDY    71  64  78 W3        29.96F
BUFFALO        CLOUDY    71  65  81 NW5       29.97F
DUNKIRK        CLOUDY    72  66  81 S5        29.96F
JAMESTOWN      CLOUDY    66  61  82 S5        30.00F
WELLSVILLE     LGT RAIN  68  62  81 SW5       30.04F
ROCHESTER      LGT RAIN  69  66  90 W7        29.96F
PENN YAN       CLOUDY    67  63  87 S5        29.99F
$$

             KEY
       WCI = WIND CHILL INDEX
       VSB = VISIBILITY
       HX  = HEAT INDEX
$$




USA.gov is the U.S. government's official web portal to all federal, state and local government web resources and services.